Regional Weather Roundup
Issued by NWS

Home | Current Version | Previous Version | Text Only | Print | Product List | Glossary Off
Versions: 1 2 3 4 5 6 7 8 9 10 11 12 13 14 15 16 17 18 19 20 21 22 23 24 25 26 27 28 29 30 31 32 33 34 35 36 37 38 39 40 41 42 43 44 45 46 47 48 49 50

000
ASUS43 KDTX 300101
RWRMI
MICHIGAN HOURLY REGIONAL WEATHER ROUNDUP
NATIONAL WEATHER SERVICE DETROIT/PONTIAC MI
900 PM EDT SUN MAR 29 2015

NOTE: "FAIR" INDICATES FEW OR NO CLOUDS BELOW 12,000 FEET WITH NO
SIGNIFICANT WEATHER AND/OR OBSTRUCTION TO VISIBILITY.

MIZ047>049-052>055-059>063-066>070-074>076-081>083-300200-
SOUTHEAST LOWER MICHIGAN

CITY           SKY/WX    TMP DP  RH WIND       PRES   REMARKS
ADRIAN         CLOUDY    39  25  57 SW20G26   29.82F WCI  29
ALMA           CLOUDY    36  32  86 SW10G20   29.69S FOG     WCI  28
ANN ARBOR      CLOUDY    40  24  53 SW15      29.79F WCI  32
BAD AXE        CLOUDY    35  29  79 SW21G32   29.68F WCI  24
CARO           CLOUDY    36  29  74 S14G22    29.67F WCI  27
DETROIT CITY   CLOUDY    43  23  45 SW21G29   29.81F
DETROIT        CLOUDY    43  23  45 S26G36    29.83F
FLINT          CLOUDY    40  25  55 S23G30    29.71F WCI  30
GROSSE ILE     CLOUDY    43  25  49 SW21G26   29.82F
HILLSDALE      CLOUDY    40  24  52 SW13G25   29.79F WCI  33
HOWELL         CLOUDY    39  26  59 S15G23    29.73F WCI  30

CITY           SKY/WX    TMP DP  RH WIND       PRES   REMARKS
JACKSON        CLOUDY    40  24  53 SW23G30   29.76F WCI  30
LAMBERTVILLE   CLOUDY    43  23  45 SW18G26   29.85F
LANSING        LGT RAIN  39  27  62 SW22G36   29.73F WCI  29
LAPEER         CLOUDY    38  25  60 SW23G30   29.72F WCI  27
MASON          CLOUDY    38  25  59 SW8G16    29.73F WCI  32
MONROE         CLOUDY    43  25  49 SW20G25   29.83F
MT. CLEMENS    CLOUDY    41  24  51 S20G35    29.77F
PONTIAC        CLOUDY    39  23  52 SW12G23   29.75F WCI  32
PORT HOPE        N/A     36  28  73 SW12G28   29.66F WCI  28
PORT HURON     CLOUDY    37  27  65 S20G26    29.78F WCI  27
TRI CITIES     MIX PCPN  36  30  79 SW17G24   29.68F WCI  26
TROY           CLOUDY    42  22  45 SW12G28   29.80F
SAGINAW HB     CLOUDY    36  30  80 S20G25    29.68F WCI  25
$$
MIZ043>046-050>051-056>058-064>065-071>073-077>080-300200-
SOUTHWEST LOWER MICHIGAN

CITY           SKY/WX    TMP DP  RH WIND       PRES   REMARKS
BATTLE CREEK   LGT RAIN  39  29  67 SW21G32   29.75F WCI  29
BENTON HARBOR  CLOUDY    42  34  73 SW14G23   29.76S
BIG RAPIDS     LGT SNOW  35  33  92 SW17G26   29.62F WCI  24
COLDWATER      CLOUDY    40  26  58 SW16G30   29.78F WCI  32
FREMONT        LGT SNOW  36  34  94 SW18G33   29.67R WCI  25
HOLLAND        LGT RAIN  42  35  76 SW26G37   29.73S
GRAND RAPIDS   LGT RAIN  36  33  89 SW20G26   29.71S FOG     WCI  25
IONIA          DRIZZLE   37  32  84 SW17      29.70S WCI  27
KALAMAZOO      LGT RAIN  40  30  67 SW17G28   29.77S WCI  31
LUDINGTON      CLOUDY    38  36  91 SW16G22   29.65R FOG     WCI  29
MARSHALL       CLOUDY    38  28  66 S20G25    29.75F WCI  28
MOUNT PLEASANT LGT SNOW  34  32  91 SW15G21   29.65F WCI  25
MUSKEGON       LGT RAIN  37  33  85 SW18G33   29.71S WCI  27
SOUTH HAVEN    CLOUDY    43  34  70 SW10G21   29.76R
$$
MIZ016>042-300200-
NORTHERN LOWER MICHIGAN

CITY           SKY/WX    TMP DP  RH WIND       PRES   REMARKS
ALPENA         CLOUDY    34  30  85 SW14      29.57F WCI  25
BEAVER ISLAND  LGT SNOW  33  32  96 SW13G24   29.52R WCI  24
BELLAIRE       LGT SNOW  34  32  93 SW7       29.57S WCI  28
CADILLAC       LGT SNOW  33  32  96 SW14      29.57S WCI  23
CHARLEVOIX     LGT SNOW  33  33  98 SW10G20   29.56S WCI  25
FRANKFORT      LGT RAIN  38  33  82 SW10G20   29.60R WCI  31
GAYLORD        LGT SNOW  32  31  96 SW17G23   29.52S FOG     WCI  21
GRAYLING       CLOUDY    33  31  94 SW10G16   29.57S FOG     WCI  24
HARBOR SPRINGS LGT SNOW  33  32  98 SW14G24   29.51S WCI  23
HOUGHTON LAKE  LGT SNOW  32  30  92 SW15G26   29.59F FOG     WCI  22
MANISTEE       CLOUDY    37  34  87 SW17G28   29.62R WCI  28
OSCODA         LGT SNOW  34  32  93 SW16G24   29.62F WCI  23
PELLSTON       LGT SNOW  34  32  92 SW14G22   29.51F FOG     WCI  25
ROGERS CITY    CLOUDY    33  32  94 S14G21    29.54S WCI  24
TRAVERSE CITY  LGT SNOW  35  32  88 SW10      29.56S BLWGSNOWWCI  27
$$
MIZ007>008-015-300200-
EASTERN UPPER MICHIGAN

CITY           SKY/WX    TMP DP  RH WIND       PRES   REMARKS
KINROSS        CLOUDY    34  34 100 SW10G17   29.47F WCI  26
MACKINAC ISLAN LGT SNOW  33  33 100 SW12G21   29.49S WCI  24
NEWBERRY       LGT SNOW  32  32  99 SW13      29.46R WCI  22
S. S. MARIE    LGT SNOW  32  30  92 S13       29.47F FOG     WCI  22
$$
MIZ004>006-011>014-085-300200-
CENTRAL UPPER MICHIGAN

CITY           SKY/WX    TMP DP  RH WIND       PRES   REMARKS
MANISTIQUE     FLURRIES  33  33 100 W7        29.50R WCI  27
ESCANABA       CLOUDY    36  32  87 W12       29.55R WCI  27
MENOMINEE      CLOUDY    39  32  75 NW9G18    29.62R WCI  33
SAWYER-GWINN   LGT SNOW  34  32  93 NW16G22   29.54R WCI  23
$$
MIZ001>003-009>011-084-300200-
WESTERN UPPER MICHIGAN

CITY           SKY/WX    TMP DP  RH WIND       PRES   REMARKS
IRON MOUNTAIN  CLOUDY    37  32  82 NW18      29.59R WCI  27
HOUGHTON       CLOUDY    36  31  82 NW21G29   29.59R WCI  25
COPPER HARBOR    N/A     35  32  88 N15G24    29.55R WCI  25
IRONWOOD       CLOUDY    37  30  75 NW16G22   29.71R WCI  28
$$

ABBREVIATIONS USED IN REMARKS
   TC - TEMPERATURE IN CELSIUS
  WCI - WIND CHILL INDEX
   HX - HEAT INDEX
  VSB - VISIBILITY



USA.gov is the U.S. government's official web portal to all federal, state and local government web resources and services.